Regional Weather Roundup
Issued by NWS

Home | Current Version | Previous Version | Text Only | Print | Product List | Glossary On
Versions: 1 2 3 4 5 6 7 8 9 10 11 12 13 14 15 16 17 18 19 20 21 22 23 24 25 26 27 28 29 30 31 32 33 34 35 36 37 38 39 40 41 42 43 44 45 46 47 48 49 50
000
ASUS43 KDTX 180910
RWRMI
MICHIGAN HOURLY REGIONAL WEATHER ROUNDUP
NATIONAL WEATHER SERVICE DETROIT/PONTIAC MI
ISSUED BY NATIONAL WEATHER SERVICE GRAND RAPIDS MI
400 AM EST WED JAN 18 2017

NOTE: "FAIR" INDICATES FEW OR NO CLOUDS BELOW 12,000 FEET WITH NO
SIGNIFICANT WEATHER AND/OR OBSTRUCTION TO VISIBILITY.

MIZ047>049-052>055-059>063-066>070-074>076-081>083-181000-
SOUTHEAST LOWER MICHIGAN

CITY           SKY/WX    TMP DP  RH WIND       PRES   REMARKS
ADRIAN         CLOUDY    35  34  96 W7        30.00R WCI  29
ALMA           CLOUDY    35  35  99 W6        29.95R FOG     WCI  30
ANN ARBOR      CLOUDY    36  35  96 SW13      29.97R WCI  27
BAD AXE        CLOUDY    33  33 100 W6        29.92R FOG     WCI  27
DETROIT CITY   CLOUDY    37  37 100 MISG      29.96R
DETROIT        CLOUDY    38  36  92 W12       29.97R WCI  30
FLINT          CLOUDY    36  35  96 W12       29.95R FOG     WCI  28
GROSSE ILE     CLOUDY    38  35  90 W6        29.96S WCI  33
HILLSDALE      LGT SNOW  32  32 100 W8        29.98R WCI  25
HOWELL         CLOUDY    36  34  94 W10       29.95S FOG     WCI  28

CITY           SKY/WX    TMP DP  RH WIND       PRES   REMARKS
JACKSON        CLOUDY    35  33  92 W7        29.97S WCI  29
LANSING        CLOUDY    36  33  89 W12       29.97R FOG     WCI  28
MASON          CLOUDY    35  35 100 W7        29.96S FOG     WCI  29
MONROE         DRIZZLE   37  36  96 W10       29.98R WCI  29
MT. CLEMENS    CLOUDY    38  37  97 W9        29.93R WCI  32
PONTIAC        CLOUDY    36  33  89 W13       29.93R FOG     WCI  27
PORT HOPE        N/A     34  34 100 W8        29.89R WCI  27
PORT HURON     CLOUDY    36  36 100 W3        29.94R FOG
TRI CITIES     CLOUDY    35  35 100 W8        29.94R FOG     WCI  29
YPSILANTI      CLOUDY    38  36  92 W14       29.97R WCI  30
$$
MIZ043>046-050>051-056>058-064>065-071>073-077>080-181000-
SOUTHWEST LOWER MICHIGAN

CITY           SKY/WX    TMP DP  RH WIND       PRES   REMARKS
BATTLE CREEK   CLOUDY    35  35 100 W10       29.99R FOG     WCI  27
BENTON HARBOR  CLOUDY    36  34  92 W12       30.04R FOG     WCI  28
BIG RAPIDS     CLOUDY    34  33  96 CALM      29.94R FOG
COLDWATER      CLOUDY    35  35 100 W9        30.00R FOG     WCI  27
HOLLAND        CLOUDY    36  34  92 W8        30.00R WCI  30
GRAND RAPIDS   CLOUDY    36  34  92 W10       29.97R FOG     WCI  28
KALAMAZOO      CLOUDY    36  33  89 W9        30.00R FOG     WCI  29
MARSHALL       CLOUDY    35  35  99 W8        29.98R FOG     WCI  29
MOUNT PLEASANT CLOUDY    35  34  99 W6        29.93S FOG     WCI  30
MUSKEGON       CLOUDY    36  35  96 W7        29.99R WCI  30
STURGIS        CLOUDY    34  33  99 W9        30.01R FOG     WCI  26
$$
MIZ016>042-181000-
NORTHERN LOWER MICHIGAN

CITY           SKY/WX    TMP DP  RH WIND       PRES   REMARKS
ALPENA         FOG       33  32  96 NW3       29.92R VSB 1/2
BEAVER ISLAND  CLOUDY    32  32 100 W3        29.93S FOG
BELLAIRE       CLOUDY    32  32  99 CALM      29.95R FOG
CADILLAC       CLOUDY    33  32  96 NW7       29.91S FOG     WCI  27
CHARLEVOIX     CLOUDY    33  33 100 CALM      29.96F FOG
GAYLORD        CLOUDY    33  30  88 W5        29.90R WCI  29
HOUGHTON LAKE  CLOUDY    33  32  96 W5        29.92R FOG     WCI  29
MANISTEE       CLOUDY    35  34  96 W5        29.96R WCI  31
OSCODA         CLOUDY    34  34  98 CALM      29.91R FOG
PELLSTON       CLOUDY    32  30  92 CALM      29.93S FOG
TRAVERSE CITY  CLOUDY    34  33  96 W3        29.94R
LUDINGTON      CLOUDY    35  35 100 NW3       29.97R FOG
$$
MIZ007>008-015-181000-
EASTERN UPPER MICHIGAN

CITY           SKY/WX    TMP DP  RH WIND       PRES   REMARKS
KINROSS        CLOUDY    30  28  92 S3        29.90S
MACKINAC ISLAN CLOUDY    31  31 100 W5        29.92S WCI  26
NEWBERRY       CLOUDY    24  24  97 SW8       29.89F WCI  16
S. S. MARIE    CLEAR     28  25  88 SW5       29.89F WCI  23
$$
MIZ004>006-011>014-085-181000-
CENTRAL UPPER MICHIGAN

CITY           SKY/WX    TMP DP  RH WIND       PRES   REMARKS
MANISTIQUE     CLOUDY    32  32  99 SW7       29.91F WCI  26
ESCANABA       CLOUDY    33  32  96 W10       29.93S WCI  25
SAWYER-GWINN   CLOUDY    23  22  96 S5        29.87F FOG     WCI  17
$$
MIZ001>003-009>011-084-181000-
WESTERN UPPER MICHIGAN

CITY           SKY/WX    TMP DP  RH WIND       PRES   REMARKS
IRON MOUNTAIN  CLOUDY    15  12  88 CALM      29.88F
HOUGHTON       CLEAR     27  21  78 SW6       29.80F WCI  20
COPPER HARBOR    N/A     29  24  82 W7        29.80F WCI  22
IRONWOOD       CLEAR     30  25  81 SW12      29.84S WCI  20
$$

ABBREVIATIONS USED IN REMARKS
   TC - TEMPERATURE IN CELSIUS
  WCI - WIND CHILL INDEX
   HX - HEAT INDEX
  VSB - VISIBILITY




USA.gov is the U.S. government's official web portal to all federal, state and local government web resources and services.